Regional Weather Roundup
Issued by NWS Cleveland, OH

Home | Current Version | Previous Version | Graphics & Text | Print | Product List | Glossary On
Versions: 1 2 3 4 5 6 7 8 9 10 11 12 13 14 15 16 17 18 19 20 21 22 23 24 25 26 27 28 29 30 31 32 33 34 35 36 37 38 39 40 41 42 43 44 45 46 47 48 49 50
678
ASUS41 KCLE 201200
RWRCLE
OHIO REGIONAL WEATHER ROUNDUP
NATIONAL WEATHER SERVICE WILMINGTON, OH
700 AM EST TUE FEB 20 2018

NOTE: "FAIR" INDICATES FEW OR NO CLOUDS BELOW 12,000 FEET WITH NO
SIGNIFICANT WEATHER AND/OR OBSTRUCTIONS TO VISIBILITY.

OHZ001>008-015>018-024>027-034-035-043-044-201300-
   NORTHWEST OHIO

CITY           SKY/WX    TMP DP  RH WIND       PRES   REMARKS
DEFIANCE       MOCLDY    59  55  87 S13       29.98S
FINDLAY        MOCLDY    63  55  75 S24       30.02R
TOLEDO EXPRESS MOCLDY    62  58  86 S13       29.98S
TOLEDO EXEC    MOCLDY    63  56  78 S16G24    30.00S
LIMA           FAIR      61  56  83 S20G26    30.04R
$$

OHZ009>014-019>023-028>033-038-089-201300-
   NORTHEAST OHIO

CITY           SKY/WX    TMP DP  RH WIND       PRES   REMARKS
CLE-HOPKINS    CLOUDY    63  55  75 S13       30.09R
CLE-LAKEFRONT  CLOUDY    64  53  67 S20G31    30.05R
CUY CO. ARPT   CLOUDY    64  55  72 S14       30.07
LORAIN-ELYRIA  CLOUDY    64  52  64 SW13G22   30.06S
ASHTABULA      CLOUDY    61  54  77 SW13      30.09S
AKRON-CANTON   CLOUDY    62  53  72 SW17      30.13R
WOOSTER        NOT AVBL
MANSFIELD      CLOUDY    63  56  78 S23G33    30.10R
YOUNGSTOWN     CLOUDY    62  53  72 S13       30.13R
$$

OHZ042-051>053-060>062-070>072-077>081-201300-
  SOUTHWEST OHIO

CITY           SKY/WX    TMP DP  RH WIND       PRES   REMARKS
CINC-COVINGTON FAIR      63  58  83 S16G24    30.12R
CINC-LUNKEN    FAIR      62  56  80 S14       30.13S
HAMILTON       FAIR      64  56  75 S7        30.11S
DAYTON         NOT AVBL
WRIGHT-PAT AFB NOT AVBL
DAYTON GENERAL FAIR      62  55  77 S14       30.10S
WILMINGTON     FAIR      59  55  87 S13       30.13S
$$

OHZ036-037-039>041-045>050-054>059-063>069-073>076-082>088-201300-
  CENTRAL AND SOUTHEAST OHIO

CITY           SKY/WX    TMP DP  RH WIND       PRES   REMARKS
COLUMBUS       FAIR      64  56  75 S10G21    30.14R
OSU AIRPORT    FAIR      62  56  80 S15       30.12R
BOLTON FIELD   FAIR      61  55  81 S16G23    30.14S
RICKENBACK AFB NOT AVBL
NEWARK         MOCLDY    61  54  77 S8        30.15R
MARION         MOCLDY    60  54  80 S18G26    30.10R
LANCASTER      FAIR      62  54  74 S12       30.17R
ZANESVILLE     CLOUDY    62  52  69 S12       30.18R
NEW PHILLY     CLOUDY    62  53  72 S9G17     30.17R
$$




USA.gov is the U.S. government's official web portal to all federal, state and local government web resources and services.